Location: Bidart
(43.4376°N, 1.5913°W)
Time: 17:14:01
(UTC+00:00)

USA 229 DEB - Visible Passes

Search period start: 16 April 2026 00:00
Search period end: 26 April 2026 00:00
Orbit: 844 x 1364 km, 63.4° (Epoch: 10 January)

Date Brightness Start Highest point End Pass type
(mag) Time Alt. Az. Time Alt. Az. Time Alt. Az.
16 Apr 4.8 00:47:26 10° NNW 00:54:36 47° NE 01:00:15 19° ESE visible
16 Apr 4.1 02:38:20 10° NW 02:45:44 51° WSW 02:47:24 45° SSW visible
16 Apr 6.2 20:17:20 10° NW 20:21:27 17° NNW 20:25:51 10° NNE visible
16 Apr 6.2 22:11:21 10° NNW 22:15:31 16° NNE 22:19:56 10° NE visible
17 Apr 5.2 00:02:10 10° NNW 00:08:50 35° NE 00:14:06 17° E visible
17 Apr 3.9 01:52:48 10° NW 02:00:25 75° WSW 02:01:22 68° S visible
17 Apr 5.5 03:45:47 10° WNW 03:48:38 16° W 03:48:38 16° W visible
17 Apr 6.0 19:30:39 10° WNW 19:35:18 21° NNW 19:40:21 10° NNE visible
17 Apr 6.2 21:25:31 10° NNW 21:29:12 15° N 21:33:05 10° NE visible
17 Apr 5.6 23:16:54 10° NNW 23:22:54 26° NNE 23:28:49 12° E visible
18 Apr 4.0 01:07:23 10° NW 01:14:59 78° NE 01:16:07 67° ESE visible
18 Apr 5.1 02:59:10 10° WNW 03:03:25 24° W 03:03:25 24° W visible
18 Apr 6.2 20:39:17 10° NW 20:42:52 15° N 20:46:40 10° NNE visible
18 Apr 5.9 22:31:35 10° NNW 22:36:51 21° NNE 22:42:30 10° ENE visible
19 Apr 4.5 00:22:04 10° NNW 00:29:25 56° NE 00:31:13 47° E visible
19 Apr 4.7 02:13:12 10° NW 02:18:33 37° W 02:18:33 37° W visible
19 Apr 6.1 19:52:43 10° NW 19:56:35 16° NNW 20:00:42 10° NNE visible
19 Apr 6.0 21:46:08 10° NNW 21:50:39 17° NNE 21:55:28 10° NE visible
19 Apr 4.9 23:36:47 10° NNW 23:43:44 40° NE 23:46:32 31° E visible
20 Apr 4.2 01:27:32 10° NW 01:33:52 56° W 01:33:52 56° W visible
20 Apr 6.1 21:00:29 10° NNW 21:04:22 15° N 21:08:30 10° NE visible
20 Apr 5.4 22:51:31 10° NNW 22:57:53 30° NE 23:02:00 20° E visible
21 Apr 3.9 00:42:04 10° NW 00:49:21 83° NW 00:49:21 83° NW visible
21 Apr 5.6 02:34:23 10° WNW 02:36:41 17° WNW 02:36:41 17° WNW visible
21 Apr 6.1 20:14:27 10° NNW 20:18:03 14° N 20:21:50 10° NNE visible
21 Apr 5.7 22:06:14 10° NNW 22:11:54 24° NNE 22:17:33 11° ENE visible
21 Apr 4.2 23:56:42 10° NNW 00:04:13 67° NE 00:04:54 64° ENE visible
22 Apr 5.1 01:48:07 10° NW 01:52:16 27° W 01:52:16 27° W visible
22 Apr 6.1 19:28:03 10° NW 19:31:43 15° N 19:35:38 10° NNE visible
22 Apr 5.9 21:20:52 10° NNW 21:25:46 19° NNE 21:31:02 10° ENE visible
22 Apr 4.6 23:11:24 10° NNW 23:18:35 48° NE 23:20:33 41° E visible
23 Apr 4.6 01:02:20 10° NW 01:07:55 43° W 01:07:55 43° W visible
23 Apr 6.0 20:35:20 10° NNW 20:39:32 16° NNE 20:44:00 10° NE visible
23 Apr 5.1 22:26:08 10° NNW 22:32:50 35° NE 22:36:15 25° E visible
24 Apr 4.1 00:16:46 10° NW 00:23:38 69° W 00:23:38 69° W visible
24 Apr 5.9 02:09:53 10° WNW 02:10:59 12° WNW 02:10:59 12° WNW visible
24 Apr 6.1 19:49:31 10° NNW 19:53:14 15° N 19:57:09 10° NE visible
24 Apr 5.4 21:40:52 10° NNW 21:46:55 27° NNE 21:52:01 15° E visible
24 Apr 3.9 23:31:21 10° NW 23:38:58 80° NE 23:39:23 77° E visible
25 Apr 5.4 01:23:11 10° WNW 01:26:45 22° W 01:26:45 22° W visible
25 Apr 5.7 20:55:33 10° NNW 21:00:52 21° NNE 21:06:35 10° ENE visible
25 Apr 4.4 22:46:01 10° NNW 22:53:25 57° NE 22:55:12 48° E visible
